STARLINK-35594, 66157

Orbit data source: Space-Track

STARLINK-35594, 66157 is a payload satellite owned by SpaceX/Seattle (US) in LEO that was launched on Sat, 25 Oct 2025 UTC via an FALCON 9 launch vehicle from the Air Force Eastern Test Range (AFETR). Payload-class satellites include a variety of spacecraft equipped with specific instruments for various scientific and technological missions. These include communications satellites like Starlink; space stations such as the ISS; scientific satellites like the Hubble; Earth observation satellites from companies like Planet Labs, Umbra, and HawkEye 360; GPS; miniature CubeSats for education and research; and military/defense satellites.

Loading next visibility...
Identifier
66157, 2025-240M
Orbit
LEO
Country
Flag of USUS
Related business
Manufacturer
SpaceX/Seattle
Mission
Operational Commercial Communications
Bus & Motor
STARLINK V2MO, Unknown motor
Mass
575 kg wet, ~530 kg dry
Launch date (UTC)
2025-10-25 (8 months ago)
Launch vehicle
FALCON 9
Launch site
Air Force Eastern Test Range (AFETR)
Object type
Payload
Rocket body
Debris
Shape & HBR
Box + 2 Pan, 17.7 m
Radar Cross Section
36.964 m², Large (>1 m²)

Expand to show TLE details & history
Last TLE update: 13 hours ago

TLE from 13 hours ago
0 STARLINK-35594
1 66157U 25240M   26171.33986226  .00023252  00000-0  69707-3 0  9990
2 66157  53.1587 304.6669 0001608 114.1662 245.9509 15.34405394 37727
Epoch: 2026-06-20T08:09Z
TLE epoch observation values (Epoch: 2026-06-20T08:09:24.099Z)
Latitude
Longitude
-86.23941°
Altitude
464.037 km
Speed
7.635 km/s
True Right ascension
20h 18m 40s
True Declination
0° 00' 00"
Sunlit
Object was in full shadow at epoch
Visualization orbit readout
Latitude
Unknown
Longitude
Unknown
Altitude
Unknown
Speed
Unknown
Apparent Right ascension
Unknown
Apparent Declination
Unknown
Sunlit
N/A
Visualization observer readout
Local Sidereal Time
08:33:27
Azimuth
Unknown
Elevation
Unknown
Doppler factor
Unknown
Orbital elements
Apogee altitude
464.044 km
Perigee altitude
461.844 km
Semi-major axis
6,841.081 km
Eccentricity
0.00016
Inclination
53.1587°
RAAN
304.6669°
Arg. of periapsis
114.1662°
True anomaly
245.93407°
Mean anomaly
245.9509°
Eccentric anomaly
245.94249°
Mean motion
3.8358 °/min
Orbital period
93.85 mins
BSTAR
0.00069707
Loading maneuver chart data...
Computing Atmospheric mass density...
Loading historical data...
Loading historical data...
Loading historical data...
Loading historical data...
Loading historical data...
Loading historical data...
Loading historical data...

Documentation

Showing up to 5 results
|